Regional Weather Roundup
Issued by NWS Burlington, VT

Home | Current Version | Previous Version | Text Only | Print | Product List | Glossary On
Versions: 1 2 3 4 5 6 7 8 9 10 11 12 13 14 15 16 17 18 19 20 21 22 23 24 25 26 27 28 29 30 31 32 33 34 35 36 37 38 39 40 41 42 43 44 45 46 47 48 49 50
000
ASUS41 KBTV 261030
RWRBTV
VERMONT REGIONAL WEATHER ROUNDUP
NATIONAL WEATHER SERVICE BURLINGTON VT
600 AM EDT TUE JUL 26 2016

NOTE: "FAIR" INDICATES FEW OR NO CLOUDS BELOW 12,000 FEET WITH NO
SIGNIFICANT WEATHER AND/OR OBSTRUCTIONS TO VISIBILITY.

* THESE REPORTS ARE NOT UNDER NWS QUALITY CONTROL AND/OR DO NOT
  REPORT WEATHER SUCH AS PRECIPITATION AND FOG.

VTZ001>019-261100-
_____VERMONT_____


CITY           SKY/WX    TMP DP  RH WIND       PRES   REMARKS
BURLINGTON     FAIR      74  59  59 W8        29.79R
MONTPELIER     MOCLDY    70  59  68 W6        29.86R
MORRISVILLE    FAIR      67  61  81 CALM      29.81R
ST. JOHNSBURY*   N/A     64  63  96 MISG      29.78R
LYNDONVILLE*   FAIR      66  63  89 CALM      29.83R
MIDDLEBURY*    FAIR      66  66 100 CALM      29.82R
RUTLAND*       FAIR      66  64  93 CALM      29.84R
SPRINGFIELD    FAIR      66  62  87 NW5       29.83R
HIGHGATE*      MOCLDY    71  61  71 SW5       29.79R
NEWPORT*       MOCLDY    69  62  77 W12G20    29.80R
BENNINGTON     FAIR      70  66  87 SW7       29.87R
SUTTON*          N/A     66 N/A N/A MISG        N/A
GALLUP MILLS*    N/A     63 N/A N/A MISG        N/A
UNION VILLAGE*   N/A     61 N/A N/A MISG        N/A
MT. MANSFIELD*   N/A     57 N/A N/A NW25        N/A

_____LAKE CHAMPLAIN_____


CITY           SKY/WX    TMP DP  RH WIND       PRES   REMARKS
BURTON ISLAND*   N/A     73  64  73 SW7         N/A
COLCHESTER RF*   N/A     75  64  69 W20         N/A
DIAMOND ISL*     N/A    N/A N/A N/A W16         N/A

$$

NYZ007-026>031-035-052-083-087-261100-
_____NORTHERN NEW YORK_____


CITY           SKY/WX    TMP DP  RH WIND       PRES   REMARKS
PLATTSBURGH    CLEAR     70  61  73 SW3       29.78R
SARANAC LAKE   CLEAR     63  58  83 SW6       29.86R
MASSENA        CLEAR     64  60  87 SW8       29.82R
OGDENSBURG*    CLEAR     66  63  88 W3        29.84R
POTSDAM*       PTCLDY    66  64  94 SW6       29.85R
STARK FALLS*     N/A     90 N/A N/A SW6         N/A
WATERTOWN      CLEAR     68  61  78 W8        29.86R
FT DRUM        CLEAR     64  60  85 SW5       29.87R
ALBANY         PTCLDY    67  64  90 CALM      29.87R
GLENS FALLS    CLEAR     67  65  93 S5        29.83R FOG

$$
NHZ002-005-011-261100-
_____NEW HAMPSHIRE_____


CITY           SKY/WX    TMP DP  RH WIND       PRES   REMARKS
LEBANON        CLEAR     64  61  90 CALM      29.81R FOG
KEENE          CLEAR     64  64 100 CALM      29.86R FOG
MT WASHINGTON  DRZL/FOG  52  52 100 NW45G55     N/A  VSB 0
PLYMOUTH       FAIR      66  65  96 W3        29.80R
WHITEFIELD     CLEAR     65  62  90 CALM      29.80R

$$

_____REGIONAL QUEBEC LOCATIONS_____


CITY           SKY/WX    TMP DP  RH WIND       PRES   REMARKS
MONTREAL       PTCLDY    66  63  88 SW10      29.76R
QUEBEC CITY    CLOUDY    64  64 100 SW6       29.71R FOG
SHERBROOKE     MOCLDY    66  64  94 S3        29.75R

_____REGIONAL ONTARIO LOCATIONS_____


CITY           SKY/WX    TMP DP  RH WIND       PRES   REMARKS
OTTAWA         PTCLDY    64  61  88 W7        29.82R

______KEY______
VSB  - VISIBILITY IN MILES
WCI  - WIND CHILL INDEX
HX   - HEAT INDEX
$$
NNNN




USA.gov is the U.S. government's official web portal to all federal, state and local government web resources and services.